Hourly Data Report for September 17, 2017

All times are specified in Local Standard Time (LST). Add 1 hour to adjust for Daylight Saving Time where and when it is observed.

ST. STEPHEN
NEW BRUNSWICK

45°12'36.600" N
67°15'10.300" W
26.10 m
8104935
71607
WSS

Download Data

Hourly Data (September 2017)
Hourly Data Report for September 17, 2017
Temp Definition
°C
Dew Point Temp Definition
°C
Rel Hum Definition
%
Wind Dir Definition
10's deg

Wind Spd Definition
km/h
Visibility Definition
km
Stn Press Definition
kPa
Hmdx Definition


Wind Chill Definition


Weather Definition


TIME
00:00 15.4 14.7 96   0   101.72     LegendNANA
01:00 15.1 14.5 96   0   101.76     LegendNANA
02:00 14.6 14.0 96 7 3   101.76     LegendNANA
03:00 15.3 14.7 96 6 6   101.76     LegendNANA
04:00 15.3 14.6 96 6 3   101.80     LegendNANA
05:00 15.0 14.4 96 11 3   101.84     LegendNANA
06:00 14.9 14.3 97 10 2   101.86     LegendNANA
07:00 14.8 14.3 97 14 5   101.89     LegendNANA
08:00 14.7 14.3 97 15 7   101.90     LegendNANA
09:00 15.1 14.6 97 12 4   101.94     LegendNANA
10:00 15.6 14.9 95 8 4   101.92     LegendNANA
11:00 16.6 15.3 92 16 4   101.91     LegendNANA
12:00 17.9 15.7 87 13 3   101.89     LegendNANA
13:00 19.5 16.2 81 17 7   101.81     LegendNANA
14:00 22.3 16.9 71 11 5   101.77 28   LegendNANA
15:00 22.7 16.7 69 11 9   101.73 28   LegendNANA
16:00 21.5 16.5 73 7 11   101.71 26   LegendNANA
17:00 20.4 16.0 76 12 11   101.73 25   LegendNANA
18:00 17.8 14.9 83 10 8   101.76     LegendNANA
19:00 15.6 14.1 91 10 6   101.78     LegendNANA
20:00 14.6 13.5 93 9 5   101.81     LegendNANA
21:00 14.0 13.1 95 9 5   101.85     LegendNANA
22:00 14.4 13.7 96 12 2   101.87     LegendNANA
23:00 14.6 14.0 96 10 4   101.86     LegendNANA

Notes on Data Quality.

Legend

  • E = Estimated
  • M = Missing
  • NA = Not Available
  • ‡ = Partner data that is not subject to review by the National Climate Archives
Date modified: